HUANJING 1C (HJ-1C)     
1 38997U 12064A   19267.15941692  .00001198  00000-0  30711-4 0  9996
2 38997  97.1834 297.0335 0008270 258.2006 173.6559 15.41322175384607
FENGNIAO 1 (FN-1)       
1 38998U 12064B   19267.10535289  .00001006  00000-0  25315-4 0  9995
2 38998  97.2585 294.8669 0004630 312.7094  47.3763 15.42318454383627
XINYAN 1 (XY-1)         
1 38999U 12064C   19267.11550962  .00367253  71213-4  34078-3 0  9994
2 38999  97.1525 345.0568 0002816 246.3525 197.8051 16.12289824387556